CZ-6A DEB, 56626

Orbit data source: Space-Track

CZ-6A DEB, 56626 is space debris in SSO originally from a launch on Fri, 11 Nov 2022 UTC launched from the Taiyaun Space Center, China (TSC). Debris objects in space refer to the collection of defunct objects orbiting the Earth. Examples of debris include non-operational satellites, rocket bodies, and fragments generated from explosions, collisions, or faulty payload assembly.

Loading next visibility...
Identifier
56626, 2022-151AFA
Orbit
SSO
Country
Flag of CNCN / PRC
Related business
Manufacturer
SAST
Mission
Spacecraft
Bus & Motor
Unknown
Mass
Unknown
Launch date (UTC)
2022-11-11 (4 years ago)
Launch vehicle
Unknown
Launch site
Taiyaun Space Center, China (TSC)
Object type
Payload
Rocket body
Debris
Shape & HBR
Unknown shape, 0.1 m
Radar Cross Section
Small (<0.1 m²)

Expand to show TLE details & history
Last TLE update: 2 days ago

TLE from 2 days ago
0 CZ-6A DEB
1 56626U 22151AFA 26171.33116736  .00000449  00000-0  21626-3 0  9990
2 56626  98.8096 204.3204 0009423  66.1272 294.0893 14.23687456164400
Epoch: 2026-06-20T07:56Z
TLE epoch observation values (Epoch: 2026-06-20T07:56:52.859Z)
Latitude
-0.00002°
Longitude
176.55283°
Altitude
813.064 km
Speed
7.448 km/s
True Right ascension
13h 37m 16s
True Declination
0° 00' 00"
Sunlit
Object was in daylight at epoch
Visualization orbit readout
Latitude
Unknown
Longitude
Unknown
Altitude
Unknown
Speed
Unknown
Apparent Right ascension
Unknown
Apparent Declination
Unknown
Sunlit
N/A
Visualization observer readout
Local Sidereal Time
21:56:58
Azimuth
Unknown
Elevation
Unknown
Doppler factor
Unknown
Orbital elements
Apogee altitude
816.841 km
Perigee altitude
803.294 km
Semi-major axis
7,188.205 km
Eccentricity
0.00094
Inclination
98.8096°
RAAN
204.3204°
Arg. of periapsis
66.1272°
True anomaly
293.99068°
Mean anomaly
294.0893°
Eccentric anomaly
294.03999°
Mean motion
3.56133 °/min
Orbital period
101.09 mins
BSTAR
0.00021626
Loading maneuver chart data...
Computing Atmospheric mass density...
Loading historical data...
Loading historical data...
Loading historical data...
Loading historical data...
Loading historical data...
Loading historical data...
Loading historical data...

Documentation

Showing up to 5 results
|